EA3GYL La Torregassa ES current weather conditions

sailwx.info

Wind from 335 at 0 knots gusting 2

Air temperature 5.6° C
Dewpoint 4.2° C

Last reported at 2017-Feb-25 00:47 UTC.
Time now 2017-Feb-25 05:23 UTC

Location: N 41°17' E 001°31'.
View on Google Maps.

See reports from other nearby stations

  
Tides and Currents Weather Stations Pressure Air Temp Water Temp Dewpoint Dewpoint Depression Visibility Wind Speed Wind Dir Waves Ship Positions
date/time (UTC)wind fromknots sea level pressurealtimeterstation pressurevisibilityair tempwater tempwave heightnotes
2017-Feb-25 00:47 335 0 gusting 2 5.6
2017-Feb-25 00:31 090 7.2
2017-Feb-25 00:15 327 0 gusting 2 7.2
2017-Feb-24 23:58 318 6.1
2017-Feb-24 23:42 322 6.7
2017-Feb-24 23:26 322 6.7
2017-Feb-24 23:09 314 6.7
2017-Feb-24 22:53 299 0 gusting 3 6.7
2017-Feb-24 22:37 012 6.7
2017-Feb-24 21:18 027 7.8
2017-Feb-24 21:02 074 7.8
2017-Feb-24 20:46 074 8.3
2017-Feb-24 20:29 302 8.9
2017-Feb-24 20:13 291 8.9
2017-Feb-24 19:57 297 8.9
2017-Feb-24 19:40 249 8.9
2017-Feb-24 19:24 254 8.9
2017-Feb-24 19:08 211 1 gusting 4 9.4
2017-Feb-24 18:51 258 0 gusting 2 9.4
2017-Feb-24 18:35 251 10.0
2017-Feb-24 18:19 286 0 gusting 1 10.6
2017-Feb-24 17:08 164 11.7
2017-Feb-24 16:52 155 0 gusting 1 11.7
2017-Feb-24 16:35 125 11.7
2017-Feb-24 16:19 200 11.7
2017-Feb-24 16:02 240 11.7
2017-Feb-24 15:46 237 0 gusting 2 11.7
2017-Feb-24 15:29 212 0 gusting 2 11.7
2017-Feb-24 00:00 13.3
2017-Feb-23 23:50 12.8
2017-Feb-23 23:40 12.8
2017-Feb-23 23:30 12.8
2017-Feb-23 19:30 13.3
2017-Feb-23 19:20 319 0 gusting 3 13.3
2017-Feb-23 19:10 13.3
2017-Feb-23 19:00 13.9
2017-Feb-23 18:50 13.9
2017-Feb-23 10:10 14.4
2017-Feb-23 10:00 13.9
2017-Feb-23 09:50 13.3
2017-Feb-23 09:36 136 12.8
2017-Feb-23 09:20 126 12.8
2017-Feb-23 08:41 252 0 gusting 4 13.9
2017-Feb-23 08:24 290 0 gusting 2 12.8